Regional Weather Roundup
Issued by NWS

Home | Current Version | Previous Version | Text Only | Print | Product List | Glossary Off
Versions: 1 2 3 4 5 6 7 8 9 10 11 12 13 14 15 16 17 18 19 20 21 22 23 24 25 26 27 28

000
ASUS45 KBOU 222310
RWRCO

WEATHER ROUNDUP FOR COLORADO
NATIONAL WEATHER SERVICE DENVER/BOULDER CO
400 PM MST WED NOV 22 2017

NOTE: "FAIR" INDICATES FEW OR NO CLOUDS BELOW 12000 FEET WITH NO
SIGNIFICANT WEATHER AND/OR OBSTRUCTIONS TO VISIBILITY.

COZ001>005-013-030-031-230000-
...NORTHWEST COLORADO...

CITY           SKY/WX    TMP DP  RH WIND       PRES   REMARKS
CRAIG          FAIR      52  38  58 NE6       30.42R
HAYDEN         CLOUDY    47  37  68 E8        30.45R
MEEKER         FAIR      54  37  52 CALM      30.43R
RABBIT EARS PA FOG      N/A N/A N/A W7        30.54R VSB 1/4
STEAMBOAT SPGS CLOUDY    39  37  89 CALM      30.45R
WALDEN         CLOUDY    43  32  65 SW10      30.46S
$$

COZ006>008-011-230000-
...WEST CENTRAL VALLEYS...

CITY           SKY/WX    TMP DP  RH WIND       PRES   REMARKS
GRAND JUNCTION FAIR      62  33  33 CALM      30.38S
MONTROSE       FAIR      59  32  36 NW5       30.42F
EAGLE          CLOUDY    43  33  68 CALM      30.50R
RIFLE          MOCLDY    55  34  45 CALM      30.42R
DELTA          FAIR      62  31  30 CALM      30.40S
NUCLA          FAIR      63  32  31 NW9       30.42S
$$

COZ017>023-064>068-230000-
...SOUTHWEST COLORADO...

CITY           SKY/WX    TMP DP  RH WIND       PRES   REMARKS
DURANGO        FAIR      58  27  30 W8        30.36R
CORTEZ         FAIR      62  31  31 W15G22    30.34R
PAGOSA SPRINGS FAIR      59  19  21 SW6       30.40R
TELLURIDE      FAIR      54  30  40 NW3       30.51S
WOLF CREEK PAS NOT AVBL
$$

COZ009-010-012-014-032>034-037-058>063-230000-
...CENTRAL COLORADO...

CITY           SKY/WX    TMP DP  RH WIND       PRES   REMARKS
ASPEN          CLOUDY    47  33  58 CALM      30.49R
BUENA VISTA    FAIR      51  32  47 NW17G24   30.42R
COPPER MTN     SNOW      34  32  93 MISG      30.62R VSB<1/4
BERTHOUD PASS  CLOUDY    28  18  64 NW39G51   30.53R WCI  11
COTTONWOOD PAS FAIR      52  32  46 W16G28    30.49R
GUNNISON       FAIR      53  32  44 CALM      30.45S
KREMMLING      CLOUDY    46  36  66 CALM      30.48S
LEADVILLE      CLOUDY    37  31  78 N7        30.52R
MONARCH PASS   FAIR      34  28  80 SW16      30.69S WCI  23
SALIDA         NOT AVBL
SUNLIGHT       CLOUDY    34  32  93 N3        30.64R
WILKERSON PASS FAIR      36  28  75 NW8G22    30.55R
$$

COZ069>075-230000-
...SAN LUIS VALLEY/SANGRE DE CRISTO MOUNTAINS...

CITY           SKY/WX    TMP DP  RH WIND       PRES   REMARKS
ALAMOSA        FAIR      59  28  30 NE7       30.37S
DEL NORTE      FAIR      59  30  33 N9        30.42R
LA VETA PASS   FAIR      43  27  52 S9G21       N/A
SAGUACHE       FAIR      52  32  46 N22G28    30.42R
$$

COZ035-036-038>040-230000-
...NORTHERN COLORADO FRONT RANGE...

CITY           SKY/WX    TMP DP  RH WIND       PRES   REMARKS
DENVER INTL AP MOCLDY    64  34  32 W17       30.23R
DMNS CITY PARK   N/A     62  33  33 NW8       30.24R
AURORA         MOCLDY    62  34  35 NW14      30.25R
FRONT RANGE AP MOCLDY    64  36  34 W15G23    30.24R
ERIE MUNI ARPT FAIR      62  33  33 W14G21    30.27R
BOULDER MUN AP FAIR      61  34  36 CALM      30.24R
CENTENNIAL     MOCLDY    62  35  36 NW13      30.25R
BROOMFIELD     MOCLDY    61  36  39 W30       30.25R
FORT COLLINS   FAIR      62  38  40 N17       30.21R
LONGMONT       FAIR      63  35  34 W7        30.24R
$$

COZ041-046-047-076>085-087-088-230000-
...PIKES PEAK/PALMER DIVIDE AND SOUTHERN FOOTHILLS...

CITY           SKY/WX    TMP DP  RH WIND       PRES   REMARKS
COLO. SPRINGS  MOCLDY    63  27  25 S8        30.27R
A. F. ACADEMY  FAIR      62  26  26 CALM      30.28R
SCHRIEVER AFB  FAIR      60  22  22 SW5       30.28R
CHEYENNE MTN   FAIR      54  28  37 W3        30.25S
ELLICOTT         N/A    N/A N/A N/A W5        30.26R
FALCON         FAIR      59  23  25 CALM      30.31R
FORT CARSON    FAIR      64  25  23 S8        30.25R
LIMON          FAIR      63  31  30 NW8       30.23R
MONUMENT HILL  FAIR      55  32  41 N8        30.32S
CANON CITY     FAIR      68  34  28 NW16G25   30.23R
WALSENBURG     FAIR      64  32  29 E6        30.27R
TRINIDAD       FAIR      64  27  24 SW3       30.26R
$$

COZ042>045-048>051-090-091-230000-
...NORTHEAST COLORADO...

CITY           SKY/WX    TMP DP  RH WIND       PRES   REMARKS
GREELEY ARPT   FAIR      61  36  39 NW6       30.20
AKRON          FAIR      63  34  33 W10       30.18R
BURLINGTON     FAIR      66  37  34 NW8       30.17S
WRAY           NOT AVBL
YUMA           FAIR      64  36  34 W8        30.15R
STERLING       FAIR      66  37  34 N13       30.14R
HOLYOKE        FAIR      64  34  32 CALM      30.12S
FORT MORGAN    FAIR      66  34  30 NW13      30.19R
$$

COZ086-089-092>099-230000-
...SOUTHEAST COLORADO...

CITY           SKY/WX    TMP DP  RH WIND       PRES   REMARKS
PUEBLO         FAIR      66  27  23 E5        30.20R
LA JUNTA       FAIR      65  31  28 SW3       30.18S
LAMAR          FAIR      63  27  25 SW7       30.15S
SPRINGFIELD      N/A     64  27  24 CALM      30.19F
$$




USA.gov is the U.S. government's official web portal to all federal, state and local government web resources and services.